Hickory, NC

11:15 PM EDT on May 27, 2018 (GMT -0400)
Hickory Regional

Weather History for KHKY - June, 2014

Change the Weather History Date:

Tuesday, June 10, 2014

  Actual Average Record
Temperature  
Mean Temperature 77 °F -  
Max Temperature 90 °F 82 °F 97 °F (1993)
Min Temperature 64 °F 62 °F 48 °F (1988)
Cooling Degree Days 12    
Growing Degree Days 27 (Base 50)    
Moisture  
Dew Point 65 °F    
Average Humidity 80    
Maximum Humidity 100    
Minimum Humidity 40    
Precipitation  
Precipitation 0.02 in - - ()
Sea Level Pressure  
Sea Level Pressure 29.91 in    
Wind  
Wind Speed 2 mph (SW)    
Max Wind Speed 12 mph    
Max Gust Speed 21 mph    
Visibility 5 miles    
Events Fog , Rain    
Averages and records for this station are not official NWS values.
T = Trace of Precipitation, MM = Missing Value Source: NWS Daily Summary

Daily Weather History Graph

Daily Weather History Graph

Search for Another Location

Airport or City:

Astronomy

Jun. 10, 2014 Rise Set
Actual Time 6:09 AM EDT 8:41 PM EDT
Civil Twilight 5:39 AM EDT 9:11 PM EDT
Nautical Twilight 5:02 AM EDT 9:48 PM EDT
Astronomical Twilight 4:20 AM EDT 10:29 PM EDT
Moon 6:09 PM EDT (6/10) 4:08 AM EDT (6/10)
Length of Visible Light 15h 32m
Length of Day
14h 32m
Waxing Gibbous, 92% of the Moon is Illuminated
Jun 10
Waxing Gibbous
Jun 13
Full
Jun 19
Last Quarter
Jun 27
New
Jul 5
First Quarter

Hourly Weather History & Observations

Time (EDT) Temp. Heat Index Dew Point Humidity Pressure Visibility Wind Dir Wind Speed Gust Speed Precip Events Conditions
12:53 AM 68.0 °F - 66.0 °F 93% 29.88 in 7.0 mi Calm Calm - N/A   Clear
1:49 AM 66.2 °F - 64.4 °F 94% 29.94 in 2.5 mi Calm Calm - N/A   Scattered Clouds
1:53 AM 66.9 °F - 64.9 °F 93% 29.87 in 0.8 mi Calm Calm - N/A   Mist
2:17 AM 66.2 °F - 64.4 °F 94% 29.94 in 0.5 mi Calm Calm - N/A Fog Fog
2:53 AM 66.9 °F - 66.0 °F 97% 29.88 in 0.2 mi Calm Calm - N/A Fog Fog
3:14 AM 66.2 °F - 64.4 °F 94% 29.94 in 0.8 mi Calm Calm - N/A   Mist
3:33 AM 66.2 °F - 64.4 °F 94% 29.94 in 0.2 mi Calm Calm - N/A Fog Fog
3:53 AM 64.9 °F - 64.0 °F 97% 29.88 in 0.2 mi Calm Calm - N/A Fog Fog
4:10 AM 64.4 °F - 64.4 °F 100% 29.94 in 0.5 mi Calm Calm - N/A Fog Fog
4:18 AM 64.4 °F - 64.4 °F 100% 29.94 in 0.2 mi Calm Calm - N/A Fog Fog
4:53 AM 64.9 °F - 64.0 °F 97% 29.88 in 0.2 mi West 4.6 mph - N/A Fog Fog
5:53 AM 66.0 °F - 66.0 °F 100% 29.89 in 0.2 mi West 3.5 mph - N/A Fog Fog
6:53 AM 66.9 °F - 66.0 °F 97% 29.88 in 0.2 mi Calm Calm - N/A Fog Fog
7:48 AM 66.2 °F - 66.2 °F 100% 29.94 in 0.5 mi Calm Calm - N/A Fog Fog
7:53 AM 66.9 °F - 66.9 °F 100% 29.89 in 0.5 mi Calm Calm - N/A Fog Fog
8:14 AM 66.2 °F - 66.2 °F 100% 29.96 in 0.2 mi Calm Calm - N/A Fog Fog
8:25 AM 68.0 °F - 66.2 °F 94% 29.96 in 0.8 mi Calm Calm - N/A   Overcast
8:30 AM 68.0 °F - 66.2 °F 94% 29.96 in 2.0 mi Calm Calm - N/A   Overcast
8:38 AM 69.8 °F - 68.0 °F 94% 29.96 in 6.0 mi SW 4.6 mph - N/A   Mostly Cloudy
8:53 AM 69.1 °F - 68.0 °F 96% 29.91 in 9.0 mi Calm Calm - N/A   Scattered Clouds
9:53 AM 75.0 °F - 68.0 °F 79% 29.91 in 10.0 mi Calm Calm - N/A   Clear
11:53 AM 84.0 °F 86.5 °F 66.9 °F 56% 29.91 in 10.0 mi Variable 4.6 mph - N/A   Clear
12:53 PM 87.1 °F 88.3 °F 64.0 °F 46% 29.90 in 10.0 mi SW 10.4 mph 20.7 mph N/A   Partly Cloudy
1:53 PM 88.0 °F 89.3 °F 64.0 °F 45% 29.89 in 10.0 mi SSW 11.5 mph - N/A   Partly Cloudy
2:53 PM 89.1 °F 91.3 °F 66.0 °F 46% 29.87 in 10.0 mi SSW 10.4 mph - N/A   Partly Cloudy
3:53 PM 90.0 °F 91.7 °F 64.9 °F 43% 29.86 in 10.0 mi SSW 9.2 mph 17.3 mph N/A   Clear
5:53 PM 89.1 °F 89.3 °F 62.1 °F 40% 29.84 in 10.0 mi South 11.5 mph 19.6 mph N/A   Clear
6:53 PM 88.0 °F 88.4 °F 62.1 °F 42% 29.84 in 10.0 mi SSW 10.4 mph - N/A   Clear
7:53 PM 84.9 °F 86.1 °F 64.0 °F 49% 29.85 in 10.0 mi SW 6.9 mph - N/A   Clear
8:53 PM 82.0 °F 83.8 °F 64.9 °F 56% 29.87 in 10.0 mi South 3.5 mph - N/A   Clear
9:53 PM 79.0 °F - 66.0 °F 64% 29.88 in 10.0 mi Calm Calm - N/A   Clear
11:13 PM 71.6 °F - 60.8 °F 69% 29.98 in 7.0 mi WNW 8.1 mph 19.6 mph 0.02 in Rain Rain
11:53 PM 68.0 °F - 62.1 °F 81% 29.90 in 10.0 mi Calm Calm - 0.02 in   Clear